FW7122 Weather Reports


time (UTC)temp
C
wind
direction
speed
KPH
gust
KPH
rain 1hr
cm
rain 24hr
cm
rain mn
cm
humidity
%
barometer
mb
20260508115829 9 192 1.6 16.1 0.00 0.00 0.00 81 1012.2
20260508115320 9 219 0.0 8.0 0.00 0.00 0.00 82 1012.1
20260508114812 9 219 3.2 8.0 0.00 0.00 0.00 81 1012.1
20260508114325 9 219 0.0 8.0 0.00 0.00 0.00 81 1011.9
20260508113816 9 219 1.6 6.4 0.00 0.00 0.00 81 1011.9
20260508113326 9 219 0.0 8.0 0.00 0.00 0.00 81 1011.9
20260508112822 9 217 1.6 8.0 0.00 0.00 0.00 80 1011.9
20260508112315 9 217 0.0 9.7 0.00 0.00 0.00 80 1011.8
20260508111827 9 217 0.0 12.9 0.00 0.00 0.00 79 1011.8
20260508111319 9 216 0.0 14.5 0.00 0.00 0.00 79 1011.7
20260508110811 9 210 1.6 14.5 0.00 0.00 0.00 78 1011.7
20260508110323 9 212 1.6 14.5 0.00 0.00 0.00 78 1011.6
20260508105815 9 212 6.4 14.5 0.00 0.00 0.00 78 1011.6
20260508105327 9 203 3.2 6.4 0.00 0.00 0.00 79 1011.6
20260508104840 8 203 0.0 14.5 0.00 0.00 0.00 79 1011.5
20260508104316 8 203 3.2 14.5 0.00 0.00 0.00 79 1011.6
20260508103828 8 209 0.0 9.7 0.00 0.00 0.00 79 1011.6
20260508103320 8 209 0.0 11.3 0.00 0.00 0.00 80 1011.5
20260508102812 8 209 0.0 11.3 0.00 0.00 0.00 80 1011.6
20260508102324 8 206 3.2 14.5 0.00 0.00 0.00 80 1011.5
20260508101836 8 216 6.4 14.5 0.00 0.00 0.00 81 1011.6
20260508101327 8 204 4.8 14.5 0.00 0.00 0.00 81 1011.6
20260508100819 8 202 4.8 17.7 0.00 0.00 0.00 82 1011.6
20260508100310 8 215 4.8 17.7 0.00 0.00 0.00 82 1011.7
20260508095826 8 212 6.4 14.5 0.00 0.00 0.00 82 1011.7
20260508095339 8 200 0.0 9.7 0.00 0.00 0.00 83 1011.6
20260508094810 8 200 0.0 9.7 0.00 0.00 0.00 83 1011.6
20260508094322 8 200 3.2 6.4 0.00 0.00 0.00 83 1011.5
20260508093815 8 200 0.0 8.0 0.00 0.00 0.00 83 1011.6
20260508093326 8 200 1.6 8.0 0.00 0.00 0.00 82 1011.6
20260508092818 8 200 1.6 8.0 0.00 0.00 0.00 82 1011.6
20260508092313 8 200 0.0 11.3 0.00 0.00 0.00 82 1011.6
20260508091822 8 200 3.2 11.3 0.00 0.00 0.00 82 1011.7
20260508091318 8 200 0.0 11.3 0.00 0.00 0.00 82 1011.7
20260508090810 8 200 0.0 11.3 0.00 0.00 0.00 82 1011.7
20260508090323 8 199 3.2 9.7 0.00 0.00 0.00 81 1011.7
20260508085815 8 198 6.4 9.7 0.00 0.00 0.00 81 1011.8
20260508085347 8 198 3.2 9.7 0.00 0.00 0.00 81 1011.8
20260508084818 8 198 3.2 9.7 0.00 0.00 0.00 81 1011.9
20260508084310 8 208 1.6 14.5 0.00 0.00 0.00 81 1011.9
20260508083822 8 208 4.8 14.5 0.00 0.00 0.00 81 1011.9
20260508083334 8 205 0.0 14.5 0.00 0.00 0.00 81 1011.8
20260508082830 8 205 6.4 16.1 0.00 0.00 0.00 81 1011.9
20260508082322 8 217 3.2 11.3 0.00 0.00 0.00 81 1012.0
20260508081814 8 217 1.6 12.9 0.00 0.00 0.00 81 1012.0
20260508081327 8 238 6.4 12.9 0.00 0.00 0.00 80 1012.1
20260508080819 8 186 6.4 11.3 0.00 0.00 0.00 80 1012.1
20260508080311 8 217 4.8 12.9 0.00 0.00 0.00 80 1012.1
20260508075823 8 215 3.2 11.3 0.00 0.00 0.00 79 1012.1
20260508075316 8 215 3.2 9.7 0.00 0.00 0.00 79 1012.0
20260508074812 8 215 1.6 11.3 0.00 0.00 0.00 78 1012.1
20260508074325 8 213 0.0 8.0 0.00 0.00 0.00 78 1012.0
20260508073817 8 213 4.8 9.7 0.00 0.00 0.00 78 1012.1
20260508073329 8 213 1.6 14.5 0.00 0.00 0.00 77 1012.2
20260508072839 9 212 4.8 14.5 0.00 0.00 0.00 77 1012.1
20260508072310 9 244 4.8 16.1 0.00 0.00 0.00 76 1012.2
20260508071821 9 227 4.8 17.7 0.00 0.00 0.00 76 1012.3
20260508071315 9 200 4.8 19.3 0.00 0.00 0.00 75 1012.3
20260508070810 9 221 4.8 19.3 0.00 0.00 0.00 75 1012.4
20260508070322 9 198 12.9 19.3 0.00 0.00 0.00 74 1012.4
20260508065834 9 208 9.7 17.7 0.00 0.00 0.00 74 1012.3
20260508065326 9 207 3.2 20.9 0.00 0.00 0.00 73 1012.3
20260508064818 9 314 8.0 22.5 0.00 0.00 0.00 73 1012.3
20260508064332 9 260 6.4 22.5 0.00 0.00 0.00 73 1012.2
20260508063822 9 213 9.7 19.3 0.00 0.00 0.00 73 1012.3
20260508063334 9 209 8.0 17.7 0.00 0.00 0.00 72 1012.2
20260508062825 9 208 8.0 17.7 0.00 0.00 0.00 72 1012.2
20260508062337 9 205 6.4 12.9 0.00 0.00 0.00 72 1012.2
20260508061847 9 199 3.2 11.3 0.00 0.00 0.00 72 1012.2
20260508061318 9 191 1.6 11.3 0.00 0.00 0.00 71 1012.2
20260508060815 9 188 3.2 11.3 0.00 0.00 0.00 71 1012.2
20260508060327 9 216 3.2 11.3 0.00 0.00 0.00 71 1012.3
20260508055819 9 216 6.4 11.3 0.00 0.00 0.00 71 1012.3
20260508055311 9 216 3.2 14.5 0.00 0.00 0.00 70 1012.4
20260508054821 9 216 8.0 14.5 0.00 0.00 0.00 70 1012.4
20260508054314 10 216 8.0 16.1 0.00 0.00 0.00 70 1012.5
20260508053827 10 219 6.4 9.7 0.00 0.00 0.00 70 1012.5
20260508053320 10 219 0.0 9.7 0.00 0.00 0.00 70 1012.5
20260508052816 10 219 0.0 9.7 0.00 0.00 0.00 70 1012.6
20260508052328 10 219 4.8 9.7 0.00 0.00 0.00 70 1012.5
20260508051820 10 219 4.8 11.3 0.00 0.00 0.00 69 1012.6
20260508051332 10 219 4.8 11.3 0.00 0.00 0.00 69 1012.8
20260508050824 10 219 0.0 14.5 0.00 0.00 0.00 69 1012.8
20260508050315 10 221 1.6 16.1 0.00 0.00 0.00 69 1012.8
20260508045827 10 221 9.7 16.1 0.00 0.00 0.00 69 1012.8
20260508045339 10 205 0.0 8.0 0.00 0.00 0.00 68 1012.8
20260508044848 10 205 1.6 11.3 0.00 0.00 0.00 68 1012.8
20260508044317 10 205 1.6 11.3 0.00 0.00 0.00 68 1012.8
20260508043812 10 205 1.6 11.3 0.00 0.00 0.00 67 1012.8
20260508043344 10 202 1.6 9.7 0.00 0.00 0.00 67 1012.8
20260508042815 10 202 0.0 9.7 0.00 0.00 0.00 67 1012.9
20260508042325 10 198 3.2 9.7 0.00 0.00 0.00 67 1012.8
20260508041816 10 198 3.2 9.7 0.00 0.00 0.00 67 1012.8
20260508041328 10 198 3.2 14.5 0.00 0.00 0.00 67 1012.8
20260508040820 10 198 3.2 14.5 0.00 0.00 0.00 66 1012.8
20260508040311 10 205 0.0 16.1 0.00 0.00 0.00 66 1012.8
20260508035824 10 205 8.0 17.7 0.00 0.00 0.00 66 1012.9
20260508035318 10 217 9.7 17.7 0.00 0.00 0.00 66 1012.8
20260508034811 10 225 0.0 14.5 0.00 0.00 0.00 66 1012.8
20260508034322 10 223 6.4 14.5 0.00 0.00 0.00 66 1012.7
20260508033813 10 236 8.0 16.1 0.00 0.00 0.00 66 1012.8
20260508033325 10 208 4.8 16.1 0.00 0.00 0.00 66 1012.9
20260508032838 10 207 4.8 16.1 0.00 0.00 0.00 66 1012.9
20260508032327 10 202 0.0 16.1 0.00 0.00 0.00 66 1012.9
20260508031840 10 227 9.7 24.1 0.00 0.00 0.00 66 1012.9
20260508031312 10 238 0.0 14.5 0.00 0.00 0.00 66 1013.0
20260508030825 10 254 3.2 14.5 0.00 0.00 0.00 66 1013.0
20260508030320 9 258 6.4 14.5 0.00 0.00 0.00 66 1013.0
20260508025812 9 236 3.2 11.3 0.00 0.00 0.00 67 1013.0
20260508025325 9 248 0.0 0.0 0.00 0.00 0.00 67 1013.0
20260508024817 9 248 0.0 6.4 0.00 0.00 0.00 67 1013.1
20260508024328 9 248 0.0 6.4 0.00 0.00 0.00 67 1013.1
20260508023820 8 248 4.8 9.7 0.00 0.00 0.00 67 1013.1
20260508023313 8 248 3.2 11.3 0.00 0.00 0.00 69 1013.0
20260508022824 8 248 8.0 11.3 0.00 0.00 0.00 71 1013.0
20260508022320 8 252 0.0 0.0 0.00 0.00 0.00 70 1012.9
20260508021810 8 252 0.0 0.0 0.00 0.00 0.00 71 1012.9
20260508021341 8 252 0.0 0.0 0.00 0.00 0.00 71 1012.8
20260508020812 8 252 0.0 0.0 0.00 0.00 0.00 71 1012.8
20260508020325 8 252 0.0 0.0 0.00 0.00 0.00 71 1012.8
20260508015818 8 252 0.0 0.0 0.00 0.00 0.00 71 1012.8
20260508015329 8 252 0.0 0.0 0.00 0.00 0.00 70 1012.8
20260508014841 8 252 0.0 0.0 0.00 0.00 0.00 70 1012.7
20260508014332 8 252 0.0 0.0 0.00 0.00 0.00 69 1012.7
20260508013822 8 252 0.0 0.0 0.00 0.00 0.00 68 1012.6
20260508013319 8 252 0.0 0.0 0.00 0.00 0.00 67 1012.6
20260508012829 8 252 0.0 0.0 0.00 0.00 0.00 66 1012.6
20260508012342 8 252 0.0 0.0 0.00 0.00 0.00 66 1012.5
20260508011811 8 252 0.0 0.0 0.00 0.00 0.00 68 1012.4
20260508011324 9 252 0.0 0.0 0.00 0.00 0.00 64 1012.3
20260508010814 9 252 0.0 0.0 0.00 0.00 0.00 63 1012.3
20260508010326 9 252 0.0 0.0 0.00 0.00 0.00 61 1012.3
20260508005817 10 252 0.0 0.0 0.00 0.00 0.00 60 1012.3
20260508005346 10 252 0.0 0.0 0.00 0.00 0.00 59 1012.3
20260508004818 10 252 0.0 0.0 0.00 0.00 0.00 58 1012.2
20260508004350 10 252 0.0 0.0 0.00 0.00 0.00 58 1012.3
20260508003826 10 252 0.0 0.0 0.00 0.00 0.00 57 1012.3
20260508003338 11 252 0.0 0.0 0.00 0.00 0.00 56 1012.3
20260508002849 11 252 0.0 0.0 0.00 0.00 0.00 55 1012.3
20260508002320 11 252 0.0 9.7 0.00 0.00 0.00 54 1012.2
20260508001811 11 252 1.6 9.7 0.00 0.00 0.00 54 1012.2
20260508001323 11 252 0.0 1.6 0.00 0.00 0.00 53 1012.2
20260508000814 11 252 0.0 0.0 0.00 0.00 0.00 53 1012.2
20260508000327 11 252 0.0 6.4 0.00 0.00 0.00 53 1012.1
20260507235838 11 252 1.6 6.4 0.00 0.00 0.00 52 1012.1
20260507235328 11 252 0.0 6.4 0.00 0.00 0.00 52 1012.1
20260507234841 11 252 0.0 9.7 0.00 0.00 0.00 52 1012.1
20260507234332 12 252 3.2 9.7 0.00 0.00 0.00 53 1012.1
20260507233826 12 253 0.0 6.4 0.00 0.00 0.00 52 1012.1
20260507233319 12 253 1.6 11.3 0.00 0.00 0.00 53 1012.1
20260507232811 12 253 4.8 11.3 0.00 0.00 0.00 52 1012.1
20260507181827 13 248 1.6 16.1 0.00 0.00 0.00 58 1012.1
20260507181324 13 249 4.8 14.5 0.00 0.00 0.00 58 1012.2
20260507180817 13 248 8.0 14.5 0.00 0.00 0.00 59 1012.1
20260507180329 13 250 1.6 14.5 0.00 0.00 0.00 62 1012.1
20260507175822 13 250 1.6 14.5 0.00 0.00 0.00 58 1012.2
20260507175313 12 250 1.6 9.7 0.00 0.00 0.00 62 1012.1
20260507174824 12 252 0.0 9.7 0.00 0.00 0.00 61 1012.2
20260507174317 12 252 3.2 9.7 0.00 0.00 0.00 62 1012.2
20260507173830 12 252 4.8 14.5 0.00 0.00 0.00 61 1012.3
20260507173326 12 252 1.6 16.1 0.00 0.00 0.00 61 1012.4
20260507172819 12 250 0.0 16.1 0.00 0.00 0.00 62 1012.4
20260507172311 12 249 3.2 20.9 0.00 0.00 0.00 62 1012.4
20260507171824 12 249 9.7 20.9 0.00 0.00 0.00 61 1012.5
20260507171316 13 244 3.2 19.3 0.00 0.00 0.00 61 1012.6
20260507170829 13 230 3.2 17.7 0.00 0.00 0.00 61 1012.5
20260507170340 13 230 4.8 17.7 0.00 0.00 0.00 61 1012.5
20260507165811 13 225 1.6 16.1 0.00 0.00 0.00 60 1012.5
20260507165325 13 219 3.2 16.1 0.00 0.00 0.00 57 1012.5
20260507164821 13 219 3.2 11.3 0.00 0.00 0.00 56 1012.5
20260507164314 13 218 4.8 11.3 0.00 0.00 0.00 56 1012.5
20260507163847 13 217 1.6 9.7 0.00 0.00 0.00 55 1012.5
20260507163318 13 217 1.6 9.7 0.00 0.00 0.00 58 1012.5
20260507162850 13 216 3.2 9.7 0.00 0.00 0.00 55 1012.5
20260507162321 13 220 0.0 8.0 0.00 0.00 0.00 55 1012.5
20260507161814 13 220 3.2 14.5 0.00 0.00 0.00 56 1012.6
20260507161327 13 220 1.6 14.5 0.00 0.00 0.00 58 1012.4
20260507160818 12 219 4.8 16.1 0.00 0.00 0.00 59 1012.5
20260507160314 12 219 4.8 14.5 0.00 0.00 0.00 58 1012.6
20260507155828 12 219 3.2 11.3 0.00 0.00 0.00 62 1012.6
20260507155320 12 215 1.6 6.4 0.00 0.00 0.00 62 1012.7
20260507154812 12 215 0.0 6.4 0.00 0.00 0.00 64 1012.6
20260507154345 12 215 0.0 6.4 0.00 0.00 0.00 64 1012.7
20260507153817 12 215 0.0 14.5 0.00 0.00 0.00 64 1012.7
20260507153328 12 215 4.8 14.5 0.00 0.00 0.00 63 1012.7
20260507152821 12 214 3.2 12.9 0.00 0.00 0.00 65 1012.7
20260507152333 12 214 3.2 9.7 0.00 0.00 0.00 64 1012.6
20260507151844 12 214 4.8 9.7 0.00 0.00 0.00 66 1012.7
20260507151319 12 214 0.0 14.5 0.00 0.00 0.00 65 1012.7
20260507150811 12 214 6.4 19.3 0.00 0.00 0.00 65 1012.7
20260507150325 13 214 3.2 19.3 0.00 0.00 0.00 65 1012.6
20260507145819 12 207 6.4 24.1 0.00 0.00 0.00 68 1012.6
20260507145351 12 204 3.2 24.1 0.00 0.00 0.00 66 1012.6
20260507144822 12 225 4.8 17.7 0.00 0.00 0.00 67 1012.6
20260507144315 12 225 4.8 16.1 0.00 0.00 0.00 69 1012.6
20260507143827 12 225 8.0 16.1 0.00 0.00 0.00 69 1012.5
20260507143318 12 230 6.4 11.3 0.00 0.00 0.00 70 1012.6
20260507142814 12 232 1.6 16.1 0.00 0.00 0.00 70 1012.6
20260507142326 12 232 4.8 16.1 0.00 0.00 0.00 71 1012.6
20260507141820 12 227 6.4 11.3 0.00 0.00 0.00 71 1012.7
20260507141312 11 226 3.2 14.5 0.00 0.00 0.00 72 1012.7
20260507140826 11 226 1.6 14.5 0.00 0.00 0.00 72 1012.7
20260507140319 11 226 0.0 14.5 0.00 0.00 0.00 72 1012.7
20260507135812 11 226 4.8 14.5 0.00 0.00 0.00 72 1012.8
20260507135324 11 244 3.2 11.3 0.00 0.00 0.00 72 1012.9
20260507134841 11 246 3.2 12.9 0.00 0.00 0.00 72 1012.9
20260507134312 11 248 4.8 9.7 0.00 0.00 0.00 73 1013.0
20260507133825 11 248 1.6 9.7 0.00 0.00 0.00 73 1013.0
20260507133317 11 248 3.2 8.0 0.00 0.05 0.00 73 1013.0
20260507132830 10 248 0.0 8.0 0.00 0.05 0.00 74 1013.0
20260507132320 10 248 1.6 8.0 0.00 0.05 0.00 74 1013.0
20260507131813 10 248 1.6 9.7 0.00 0.05 0.00 75 1013.1
20260507131344 10 248 1.6 9.7 0.00 0.05 0.00 75 1013.1
20260507130834 10 248 0.0 8.0 0.00 0.05 0.00 75 1013.2
20260507130324 9 248 3.2 11.3 0.00 0.05 0.00 77 1013.1
20260507125820 9 248 3.2 11.3 0.00 0.05 0.00 78 1013.1
20260507125310 8 248 0.0 0.0 0.00 0.05 0.00 79 1013.1
20260507124823 8 248 0.0 0.0 0.00 0.05 0.00 78 1013.0
20260507124314 8 248 0.0 6.4 0.00 0.05 0.00 79 1013.0
20260507123827 8 248 0.0 9.7 0.00 0.05 0.00 78 1013.0
20260507123319 8 248 0.0 9.7 0.00 0.13 0.00 80 1013.0
20260507122812 8 248 4.8 9.7 0.00 0.13 0.00 80 1013.0
20260507122324 7 248 3.2 11.3 0.00 0.13 0.00 80 1013.0
20260507121820 7 248 4.8 12.9 0.00 0.13 0.00 81 1013.1
20260507121331 7 248 4.8 12.9 0.00 0.13 0.00 81 1013.0
20260507120844 7 256 0.0 9.7 0.00 0.13 0.00 82 1013.0
20260507120316 7 256 3.2 9.7 0.00 0.13 0.00 82 1012.9